Weather History for Buffalo, WY

Change the Weather History Date:

Wednesday, March 20, 2013

  Actual Average Record
Temperature  
Mean Temperature 35 °F 35 °F  
Max Temperature 52 °F 47 °F 73 °F (2007)
Min Temperature 17 °F 24 °F -1 °F (2002)
Degree Days  
Heating Degree Days 30 30  
Month to date heating degree days 591 643  
Since 1 July heating degree days 5540 5883  
Cooling Degree Days 0 0  
Month to date cooling degree days 0 0  
Year to date cooling degree days 0 0  
Moisture  
Dew Point 16 °F    
Average Humidity 53    
Maximum Humidity 80    
Minimum Humidity 26    
Precipitation  
Precipitation 0.00 in 0.03 in 0.15 in (2001)
Month to date precipitation 0.07 0.49  
Year to date precipitation 0.68 1.26  
Sea Level Pressure  
Sea Level Pressure 29.93 in    
Wind  
Wind Speed 8 mph (SSW)    
Max Wind Speed 15 mph    
Max Gust Speed 20 mph    
Visibility 10 miles    
Events      
T = Trace of Precipitation, MM = Missing Value Source: NWS Daily Summary

Daily Weather History Graph

Daily Weather History Graph

Search for Another Location

Airport:

Trip Planner

Search our weather history database for the weather conditions in past years. The results will help you decide how hot, cold, wet, or windy it might be!

Date:

Astronomy

Mar. 20, 2013 Rise Set
Actual Time 7:09 AM MDT 7:19 PM MDT
Civil Twilight 6:40 AM MDT 7:48 PM MDT
Nautical Twilight 6:06 AM MDT 8:22 PM MDT
Astronomical Twilight 5:31 AM MDT 8:57 PM MDT
Moon 12:45 PM MDT (3/20) 3:03 AM MDT (3/20)
Length of Visible Light 13h 08m
Length of Day
12h 10m
First Quarter, 60% of the Moon is Illuminated
Mar 20
First Quarter
Mar 27
Full
Apr 2
Last Quarter
Apr 10
New
Apr 18
First Quarter

Hourly Weather History & Observations

Time (MDT) Temp. Windchill Dew Point Humidity Pressure Visibility Wind Dir Wind Speed Gust Speed Precip Events Conditions
12:53 AM 23.0 °F 11.1 °F 14.0 °F 68% 30.31 in 10.0 mi South 12.7 mph - N/A   Clear
1:53 AM 21.9 °F 11.0 °F 12.9 °F 68% 30.29 in 10.0 mi SSE 10.4 mph - N/A   Clear
2:53 AM 19.9 °F 8.6 °F 12.9 °F 74% 30.25 in 10.0 mi SSE 10.4 mph - N/A   Clear
3:53 AM 18.0 °F 8.7 °F 12.0 °F 78% 30.23 in 10.0 mi SSE 6.9 mph - N/A   Clear
4:53 AM 17.1 °F 10.0 °F 12.0 °F 81% 30.19 in 10.0 mi SSE 4.6 mph - N/A   Clear
5:53 AM 17.1 °F 11.7 °F 12.0 °F 81% 30.17 in 10.0 mi ESE 3.5 mph - N/A   Clear
6:53 AM 17.1 °F 7.6 °F 10.9 °F 77% 30.14 in 10.0 mi South 6.9 mph - N/A   Clear
7:53 AM 19.0 °F 9.0 °F 12.9 °F 77% 30.10 in 10.0 mi SSE 8.1 mph - N/A   Clear
8:53 AM 24.1 °F 13.7 °F 17.1 °F 75% 30.04 in 10.0 mi SSE 10.4 mph - N/A   Unknown
9:53 AM 28.0 °F 18.6 °F 18.0 °F 66% 29.99 in 10.0 mi SE 10.4 mph - N/A   Clear
10:53 AM 37.0 °F 28.5 °F 18.0 °F 46% 29.92 in 10.0 mi SSE 13.8 mph - N/A   Clear
11:53 AM 39.9 °F 35.1 °F 18.0 °F 41% 29.89 in 10.0 mi SE 6.9 mph - N/A   Clear
12:53 PM 46.9 °F - 14.0 °F 27% 29.82 in 10.0 mi SE 5.8 mph - N/A   Overcast
1:53 PM 45.0 °F 39.3 °F 17.1 °F 33% 29.78 in 10.0 mi NW 11.5 mph - N/A   Overcast
2:53 PM 46.0 °F 39.9 °F 19.0 °F 34% 29.75 in 10.0 mi NW 13.8 mph - N/A   Mostly Cloudy
3:53 PM 51.1 °F - 18.0 °F 27% 29.72 in 10.0 mi NNW 10.4 mph 19.6 mph N/A   Overcast
4:53 PM 50.0 °F - 17.1 °F 27% 29.71 in 10.0 mi WNW 9.2 mph - N/A   Mostly Cloudy
5:53 PM 46.9 °F - 19.0 °F 33% 29.72 in 10.0 mi NW 10.4 mph - N/A   Partly Cloudy
6:53 PM 46.0 °F 41.9 °F 19.0 °F 34% 29.71 in 10.0 mi NW 8.1 mph - N/A   Clear
7:53 PM 37.0 °F 33.3 °F 16.0 °F 42% 29.73 in 10.0 mi West 4.6 mph - N/A   Clear
8:53 PM 39.9 °F 35.8 °F 17.1 °F 40% 29.70 in 10.0 mi WNW 5.8 mph - N/A   Clear
9:53 PM 37.0 °F 34.5 °F 18.0 °F 46% 29.69 in 10.0 mi WSW 3.5 mph - N/A   Clear
10:53 PM 37.0 °F 34.5 °F 19.0 °F 48% 29.64 in 10.0 mi West 3.5 mph - N/A   Clear